This is the latest recevied weather packets stored in our database for station/object N6GPM. If no packets are shown the sender has not sent any weather packets the latest 10 day(s).
| Time | Temp. | Humidity | Pressure | Rain* | Wind** | Luminosity | Snow |
|---|---|---|---|---|---|---|---|
| 1787593946 | 34.44° C | 29% | 1020.2 hPa | 0 mm | - | 882 W/m² | - |
| 1787593641 | 34.44° C | 30% | 1020.3 hPa | 0 mm | - | 879 W/m² | - |
| 1787593337 | 34.44° C | 31% | 1020.3 hPa | 0 mm | - | 886 W/m² | - |
| 1787593031 | 33.89° C | 31% | 1020.4 hPa | 0 mm | - | 883 W/m² | - |
| 1787592721 | 34.44° C | 32% | 1020.2 hPa | 0 mm | - | 865 W/m² | - |
| 1787592421 | 34.44° C | 32% | 1020.4 hPa | 0 mm | - | 824 W/m² | - |
| 1787592116 | 33.89° C | 33% | 1020.2 hPa | 0 mm | - | 793 W/m² | - |
| 1787591811 | 33.33° C | 34% | 1020.1 hPa | 0 mm | - | 776 W/m² | - |
| 1787591506 | 32.78° C | 34% | 1020.3 hPa | 0 mm | - | 758 W/m² | - |
| 1787591202 | 32.78° C | 36% | 1020.2 hPa | 0 mm | - | 746 W/m² | - |
| 1787590893 | 32.22° C | 39% | 1020.2 hPa | 0 mm | - | 723 W/m² | - |
| 1787590593 | 31.67° C | 42% | 1020.3 hPa | 0 mm | - | 706 W/m² | - |
| 1787590288 | 31.11° C | 44% | 1020.2 hPa | 0 mm | - | 690 W/m² | - |
| 1787589983 | 31.11° C | 46% | 1020.4 hPa | 0 mm | - | 674 W/m² | - |
| 1787589680 | 31.11° C | 45% | 1020.3 hPa | 0 mm | - | 653 W/m² | - |
| 1787589379 | 31.11° C | 47% | 1020.1 hPa | 0 mm | - | 634 W/m² | - |
| 1787589075 | 31.11° C | 48% | 1020.3 hPa | 0 mm | - | 616 W/m² | - |
| 1787588770 | 31.11° C | 48% | 1020.3 hPa | 0 mm | - | 596 W/m² | - |
| 1787588467 | 31.67° C | 47% | 1020.2 hPa | 0 mm | - | 578 W/m² | - |
| 1787588166 | 31.67° C | 45% | 1020.1 hPa | 0 mm | - | 555 W/m² | - |
| 1787587861 | 31.11° C | 47% | 1020.1 hPa | 0 mm | - | 539 W/m² | - |
| 1787587561 | 30.56° C | 47% | 1020.3 hPa | 0 mm | - | 519 W/m² | - |
| 1787587261 | 30.56° C | 45% | 1020 hPa | 0 mm | - | 499 W/m² | - |
| 1787586955 | 31.11° C | 42% | 1020.1 hPa | 0 mm | - | 475 W/m² | - |
| 1787586650 | 31.11° C | 38% | 1020.3 hPa | 0 mm | - | 459 W/m² | - |
* Rain latest hour (hover to see other rain measurements)
** Current wind speed in m/s (hover to see current wind gust speed)